sat.trackr.live / text

‹ back to catalog

YAOGAN-43 02D

NORAD 60948 · 2024-156D

PAYLOAD ACTIVE UNKNOWN

§ Identity

Operator
Country
PRC
Launch date
2024-09-03
Launch site
XICLF
Launch vehicle
Mass (kg)
RCS (m²)

External: N2YO · Heavens-Above · Gunter

§ Orbital elements

Epoch: 2026-09-22T12:40:50.566656Z

Period
94.55 min
Inclination
34.9965°
Eccentricity
0.0003154
Mean motion
15.22925032 rev/d
Perigee alt
494.9 km
Apogee alt
499.2 km
Semi-major
6,875.2 km
B*
2.0157e-4
RAAN
305.7232°
Arg perigee
17.4031°
Mean anomaly
342.6792°
Rev number
11,429

§ Raw data

YAOGAN-43 02D1 60948U 24156D   26265.52836304  .00004812  00000+0  20157-3 0  99992 60948  34.9965 305.7232 0003154  17.4031 342.6792 15.22925032114297

JSON: /api/v1/satellites/60948 · /tle

For live sub-satellite position, see the globe view (requires WebGL).

§ Visibility from observer

Set your observer location to see the next 7 days of passes ≥ 10°. The values pass through the URL so the page stays shareable.

No JS? Fill the form by hand. The geolocation button needs JavaScript.